(154625) = 2003 SP297

Discovered at Haleakala on 2003-09-18 by NEAT.

Orbit

Orbit type: Main Belt

Note: WebGL enabled browser required.

epoch2024-03-31.0
epoch JD2460400.5
perihelion date2022-01-29.04672
perihelion JD2459608.54672
argument of perihelion (°)181.67084
ascending node (°)198.22535
inclination (°)25.16992
eccentricity0.0900112
perihelion distance (AU)3.0093907
Tisserand w.r.t. Jupiter3.0
ΔV w.r.t. Earth (km/sec)13.3
semimajor axis (AU)3.3070634
mean anomaly (°)129.78952
mean daily motion (°/day)0.16388530
aphelion distance (AU)3.605
period (years)6.01
P-vector [x]0.94117664
P-vector [y]0.31475486
P-vector [z]0.12294678
Q-vector [x]-0.31063363
Q-vector [y]0.94911352
Q-vector [z]-0.05186780
absolute magnitude14.16
phase slope0.15
uncertainty0
referenceMPEC 2024-F28
observations used1230
oppositions17
arc length (days)7504
first opposition used2003
last opposition used2024
residual rms (arc-secs)0.66
perturbers coarse indicatorM-v
perturbers precise indicator003Ek
first observation date used2003-08-31.0
last observation date used2024-03-17.0
computer nameMPCLINUX
JD of orbit computation2456909.222288
perihelion JD uncertainty (days)2.5988E-04
argument of perihelion uncertainty (°)3.7483E-05
ascending node uncertainty (°)1.2513E-05
inclination uncertainty (°)1.0170E-05
eccentricity uncertainty 8.5903E-08
perihelion distance uncertainty (AU)2.8071E-07
Minimum Orbit Intersection Distances (in AU)
for orbit epoch: 2460400.5, reference: E2024-GB3
Mercury2.66908
Venus2.28474
Earth2.01185
Mars1.58841
Jupiter1.84648
Saturn6.03302
Uranus14.9188
Neptune26.816

Observations

1232 total observations over interval: 2003 08 31.28898 – 2024 03 17.385444
These data are available for download (format description).

Date (UT) J2000 RA J2000 Dec Magn Location Ref
2003 08 31.28898 23 41 00.92 +15 39 23.2 18.8   704 – Lincoln Laboratory ETS, New Mexico MPS 88284
2003 08 31.30131 23 41 00.57 +15 39 17.0 18.6   704 – Lincoln Laboratory ETS, New Mexico MPS 88284
2003 08 31.31337 23 41 00.17 +15 39 11.4 18.8   704 – Lincoln Laboratory ETS, New Mexico MPS 88284
2003 08 31.32543 23 40 59.78 +15 39 05.9 18.7   704 – Lincoln Laboratory ETS, New Mexico MPS 88284
2003 09 18.32713 23 30 17.15 +12 44 08.6 19.2   608 – Haleakala-AMOS MPS 87385
2003 09 18.33765 23 30 16.73 +12 44 01.5 19.1   608 – Haleakala-AMOS MPS 87385
2003 09 18.34809 23 30 16.34 +12 43 54.5 19.1   608 – Haleakala-AMOS MPS 87385
2003 09 21.20922 23 28 30.31 +12 10 51.9 18.0 R 699 – Lowell Observatory-LONEOS MPS 88284
2003 09 21.22261 23 28 29.81 +12 10 42.0   699 – Lowell Observatory-LONEOS MPS 88284
2003 09 21.23585 23 28 29.30 +12 10 33.5   699 – Lowell Observatory-LONEOS MPS 88284
2003 09 21.24911 23 28 28.77 +12 10 23.7   699 – Lowell Observatory-LONEOS MPS 88284
2003 09 21.25945 23 28 28.44 +12 10 16.6 18.1   704 – Lincoln Laboratory ETS, New Mexico MPS 87385
2003 09 21.27164 23 28 27.98 +12 10 08.1 18.3   704 – Lincoln Laboratory ETS, New Mexico MPS 87385
2003 09 21.28366 23 28 27.53 +12 09 59.8 18.7   704 – Lincoln Laboratory ETS, New Mexico MPS 87385
2003 09 21.29601 23 28 27.04 +12 09 51.0 18.6   704 – Lincoln Laboratory ETS, New Mexico MPS 87385
2003 09 21.30812 23 28 26.58 +12 09 42.0 18.6   704 – Lincoln Laboratory ETS, New Mexico MPS 87385
2003 09 30.23596 23 23 13.20 +10 21 10.6 18.3   704 – Lincoln Laboratory ETS, New Mexico MPS 88284
2003 09 30.24936 23 23 12.71 +10 21 00.1 18.5   704 – Lincoln Laboratory ETS, New Mexico MPS 88284
2003 09 30.26262 23 23 12.30 +10 20 50.2 18.8   704 – Lincoln Laboratory ETS, New Mexico MPS 88285
2003 09 30.27555 23 23 11.85 +10 20 40.1 18.8   704 – Lincoln Laboratory ETS, New Mexico MPS 88285
2003 09 30.28855 23 23 11.39 +10 20 30.7 18.8   704 – Lincoln Laboratory ETS, New Mexico MPS 88285
2003 10 11.94703 23 17 42.11 +07 55 09.5 18.0 R 599 – Campo Imperatore-CINEOS MPS 88285
2003 10 11.95892 23 17 41.85 +07 55 00.7 18.3 R 599 – Campo Imperatore-CINEOS MPS 88285
2003 10 11.97080 23 17 41.54 +07 54 51.9 17.8 R 599 – Campo Imperatore-CINEOS MPS 88285
2003 10 11.98267 23 17 41.28 +07 54 43.2 17.9 R 599 – Campo Imperatore-CINEOS MPS 88285
2003 10 17.20742 23 15 55.82 +06 51 35.5 18.6 R 699 – Lowell Observatory-LONEOS MPS 88285
2003 10 17.21981 23 15 55.62 +06 51 27.4   699 – Lowell Observatory-LONEOS MPS 88285
2003 10 17.23223 23 15 55.36 +06 51 18.3   699 – Lowell Observatory-LONEOS MPS 88285
2003 10 17.24462 23 15 55.09 +06 51 09.3   699 – Lowell Observatory-LONEOS MPS 88285
2003 10 20.08172 23 15 10.80 +06 17 59.1 19.1 V 691 – Steward Observatory, Kitt Peak-Spacewatch MPS 88285
2003 10 20.11372 23 15 10.32 +06 17 37.1 19.1 V 691 – Steward Observatory, Kitt Peak-Spacewatch MPS 88285
2003 10 20.14136 23 15 09.89 +06 17 17.9 19.2 V 691 – Steward Observatory, Kitt Peak-Spacewatch MPS 88285
2003 10 21.22453 23 14 55.33 +06 04 54.1 18.9   704 – Lincoln Laboratory ETS, New Mexico MPS 88285
2003 10 21.23639 23 14 55.11 +06 04 45.3 19.1   704 – Lincoln Laboratory ETS, New Mexico MPS 88285
2003 10 21.24794 23 14 54.92 +06 04 37.2 19.5   704 – Lincoln Laboratory ETS, New Mexico MPS 88285
2003 10 21.25952 23 14 54.79 +06 04 29.8 19.4   704 – Lincoln Laboratory ETS, New Mexico MPS 88285
2003 10 30.14419 23 13 51.07 +04 28 58.7 18.9   704 – Lincoln Laboratory ETS, New Mexico MPS 89553
2003 10 30.15665 23 13 51.08 +04 28 50.3 19.2   704 – Lincoln Laboratory ETS, New Mexico MPS 89553
2003 10 30.16921 23 13 51.15 +04 28 44.6 20.0   704 – Lincoln Laboratory ETS, New Mexico MPS 89553
2003 10 30.18244 23 13 51.00 +04 28 34.7 19.1   704 – Lincoln Laboratory ETS, New Mexico MPS 89553
2003 10 30.19761 23 13 50.93 +04 28 26.7 19.0   704 – Lincoln Laboratory ETS, New Mexico MPS 89553
2003 11 16.08302 23 16 24.98 +02 05 04.2 20.4 R 683 – Goodricke-Pigott Observatory, Tucson MPS 91020
2003 11 16.09642 23 16 25.11 +02 04 57.4 20.8 R 683 – Goodricke-Pigott Observatory, Tucson MPS 91020
2003 11 16.10983 23 16 25.51 +02 04 53.4 20.7 R 683 – Goodricke-Pigott Observatory, Tucson MPS 91020
2003 11 18.07802 23 17 06.16 +01 51 45.5 20.5 R 683 – Goodricke-Pigott Observatory, Tucson MPS 91020
2003 11 18.09142 23 17 06.57 +01 51 41.8 20.8 R 683 – Goodricke-Pigott Observatory, Tucson MPS 91020
2003 11 18.10485 23 17 06.70 +01 51 36.0 21.5 R 683 – Goodricke-Pigott Observatory, Tucson MPS 91020
2003 11 20.13819 23 17 53.61 +01 38 49.6 19.8   704 – Lincoln Laboratory ETS, New Mexico MPS 91020
2003 11 20.15109 23 17 53.88 +01 38 46.3 19.9   704 – Lincoln Laboratory ETS, New Mexico MPS 91020
2003 11 20.16389 23 17 54.20 +01 38 41.5 20.2   704 – Lincoln Laboratory ETS, New Mexico MPS 91020
2003 11 24.12354 23 19 39.43 +01 16 11.8 19.6   704 – Lincoln Laboratory ETS, New Mexico MPS 91849
2003 11 24.13615 23 19 39.75 +01 16 07.7 19.7   704 – Lincoln Laboratory ETS, New Mexico MPS 91849
2003 11 24.14871 23 19 40.09 +01 16 04.3 20.0   704 – Lincoln Laboratory ETS, New Mexico MPS 91849
2003 11 24.16125 23 19 40.49 +01 15 59.4 20.0   704 – Lincoln Laboratory ETS, New Mexico MPS 91849
2003 11 24.17371 23 19 40.72 +01 15 56.2 20.2   704 – Lincoln Laboratory ETS, New Mexico MPS 91849
2003 12 14.07242 23 32 37.46 +00 07 15.1 19.4   704 – Lincoln Laboratory ETS, New Mexico MPS 93716
2003 12 14.08567 23 32 38.12 +00 07 13.5 19.6   704 – Lincoln Laboratory ETS, New Mexico MPS 93716
2003 12 14.09872 23 32 38.71 +00 07 11.8 19.7   704 – Lincoln Laboratory ETS, New Mexico MPS 93716
2003 12 14.11177 23 32 39.34 +00 07 10.4 20.1   704 – Lincoln Laboratory ETS, New Mexico MPS 93716
2003 12 14.12492 23 32 39.97 +00 07 09.3 19.9   704 – Lincoln Laboratory ETS, New Mexico MPS 93716
2003 12 21.07050 23 38 35.48 -00 01 02.2 19.2   704 – Lincoln Laboratory ETS, New Mexico MPS 94712
2003 12 21.08461 23 38 36.19 -00 01 03.0 19.5   704 – Lincoln Laboratory ETS, New Mexico MPS 94712
2003 12 21.09797 23 38 36.96 -00 01 03.3 19.3   704 – Lincoln Laboratory ETS, New Mexico MPS 94712
2003 12 21.11142 23 38 37.61 -00 01 04.8 19.5   704 – Lincoln Laboratory ETS, New Mexico MPS 94712
2003 12 21.12463 23 38 38.35 -00 01 04.7 19.5   704 – Lincoln Laboratory ETS, New Mexico MPS 94712
2004 12 04.31848 05 38 36.59 -08 32 48.2 20.5   644 – Palomar Mountain/NEAT MPS 123342
2004 12 04.38128 05 38 33.71 -08 33 09.0 19.8   644 – Palomar Mountain/NEAT MPS 123342
2004 12 04.45503 05 38 30.31 -08 33 33.0 20.2   644 – Palomar Mountain/NEAT MPS 123342
2004 12 18.27746 05 27 47.38 -09 25 44.2 18.1 R 703 – Catalina Sky Survey MPS 123342
2004 12 18.28388 05 27 47.18 -09 25 45.7 18.4 R 703 – Catalina Sky Survey MPS 123342
2004 12 18.29028 05 27 46.82 -09 25 46.5 17.8 R 703 – Catalina Sky Survey MPS 123342
2004 12 18.29672 05 27 46.46 -09 25 46.6 18.3 R 703 – Catalina Sky Survey MPS 123342
2005 02 03.23287 05 06 12.13 -07 05 35.0 19.0   644 – Palomar Mountain/NEAT MPS 125690
2005 02 03.25241 05 06 12.10 -07 05 27.7 18.8   644 – Palomar Mountain/NEAT MPS 125690
2005 02 03.27252 05 06 12.08 -07 05 19.7 19.5   644 – Palomar Mountain/NEAT MPS 125690
2006 02 25.27931 10 04 27.87 -13 27 03.5 19.3 V 703 – Catalina Sky Survey MPS 165079
2006 02 25.28770 10 04 27.55 -13 26 59.1 18.9 V 703 – Catalina Sky Survey MPS 165079
2006 02 25.29613 10 04 27.19 -13 26 55.6 19.1 V 703 – Catalina Sky Survey MPS 165079
2006 02 25.30461 10 04 26.83 -13 26 50.8 19.2 V 703 – Catalina Sky Survey MPS 165079
2006 03 04.28424 09 59 55.03 -12 28 59.8 18.5 V 703 – Catalina Sky Survey MPS 166063
2006 03 04.29181 09 59 54.56 -12 28 55.8 19.4 V 703 – Catalina Sky Survey MPS 166063
2006 03 04.29941 09 59 54.24 -12 28 51.4 19.5 V 703 – Catalina Sky Survey MPS 166063
2006 03 04.30722 09 59 53.91 -12 28 47.7 20.0 V 703 – Catalina Sky Survey MPS 166063
2007 01 29.52136 14 21 05.22 -12 38 05.3 20.5 V 691 – Steward Observatory, Kitt Peak-Spacewatch MPS 198097
2007 01 29.53407 14 21 05.62 -12 38 04.2 20.6 V 691 – Steward Observatory, Kitt Peak-Spacewatch MPS 198097
2007 01 29.54701 14 21 06.02 -12 38 03.0 20.5 V 691 – Steward Observatory, Kitt Peak-Spacewatch MPS 198097
2007 02 26.43659 14 29 51.72 -11 09 28.0 20.1 V G96 – Mt. Lemmon Survey MPS 201495
